Location: Cardiff
(53.7833°N, 113.6000°W)
Time: 20:57:12
(UTC+00:00)

Oscar 19 - Pass Details

Date: 06 December 2023
Orbit: 771 x 789 km, 98.9° (Epoch: 04 March)

Event Time Altitude Azimuth Distance (km) Brightness Sun altitude
Rises 13:05:54 0° 14° (NNE) 3,273 13.9 -20.8°
Reaches altitude 10° 13:08:15 10° 10° (N) 2,344 13.1 -20.5°
Maximum altitude 13:13:19 59° 293° (WNW) 906 10.6 -19.7°
Drops below altitude 10° 13:18:22 10° 215° (SW) 2,340 12.9 -19.0°
Sets 13:20:43 0° 211° (SSW) 3,267 13.7 -18.7°
